RYR2TB LICT-LIMF

Flight info

Callsign RYR2TB
Flight time 1h 21m
Altitude 36000
Route GIANO DCT ELB DCT TIDKA DCT UNITA L50 LAGEN
Aircraft B738/M-SDE2E3FGHIRWXY/LB1

Departure

Time 2026-04-27 18:48
Airport Vincenzo Florio Airport Trapani-Birgi (LICT)

Arrival

Time 2026-04-27 20:10
Airport Turin Airport (LIMF)
Time Latitude Longitude Altitude Speed Heading
2026-04-27 18:07 37.90285 12.49599 30 ft 0 kts 260°
2026-04-27 18:44 37.90290 12.49587 28 ft 3 kts 317°
2026-04-27 18:44 37.90305 12.49599 30 ft 3 kts 69°
2026-04-27 18:44 37.90308 12.49627 30 ft 4 kts 65°
2026-04-27 18:45 37.90321 12.49657 30 ft 5 kts 71°
2026-04-27 18:45 37.90304 12.49699 29 ft 6 kts 120°
2026-04-27 18:45 37.90320 12.49737 31 ft 6 kts
2026-04-27 18:45 37.90361 12.49729 30 ft 6 kts 324°
2026-04-27 18:46 37.90384 12.49685 33 ft 6 kts 303°
2026-04-27 18:46 37.90418 12.49652 33 ft 4 kts
2026-04-27 18:46 37.90440 12.49670 34 ft 4 kts 37°
2026-04-27 18:46 37.90475 12.49704 35 ft 11 kts 38°
2026-04-27 18:47 37.90535 12.49765 35 ft 6 kts 34°
2026-04-27 18:47 37.90547 12.49761 35 ft 1 kts 308°
2026-04-27 18:47 37.90550 12.49755 34 ft 0 kts 308°
2026-04-27 18:47 37.90562 12.49737 34 ft 18 kts 308°
2026-04-27 18:48 37.90802 12.49347 32 ft 93 kts 308°
2026-04-27 18:48 37.91338 12.48475 28 ft 155 kts 308°
2026-04-27 18:48 37.92069 12.47287 416 ft 175 kts 307°
2026-04-27 18:48 37.92892 12.46170 1253 ft 176 kts 329°
2026-04-27 18:49 37.94140 12.45792 1554 ft 198 kts 356°
2026-04-27 18:49 37.95596 12.45590 1756 ft 221 kts 354°
2026-04-27 18:49 37.97178 12.45347 2024 ft 237 kts 354°
2026-04-27 18:49 37.98861 12.44928 2204 ft 256 kts 338°
2026-04-27 18:50 38.00478 12.43875 2784 ft 264 kts 332°
2026-04-27 18:50 38.02112 12.42793 3528 ft 266 kts 333°
2026-04-27 18:50 38.03768 12.41724 4246 ft 269 kts 333°
2026-04-27 18:50 38.05428 12.40662 4969 ft 271 kts 333°
2026-04-27 18:51 38.07233 12.39862 5674 ft 274 kts 354°
2026-04-27 18:51 38.09095 12.40099 6432 ft 276 kts 16°
2026-04-27 18:51 38.10815 12.41193 7126 ft 280 kts 35°
2026-04-27 18:51 38.12373 12.42694 7860 ft 282 kts 37°
2026-04-27 18:52 38.13926 12.44241 8603 ft 285 kts 37°
2026-04-27 18:52 38.15494 12.45820 9363 ft 288 kts 37°
2026-04-27 18:52 38.17082 12.47396 10127 ft 291 kts 31°
2026-04-27 18:53 38.21113 12.48624 10724 ft 322 kts 357°
2026-04-27 18:53 38.23406 12.48542 11151 ft 335 kts 356°
2026-04-27 18:53 38.25754 12.48426 11799 ft 340 kts 356°
2026-04-27 18:53 38.28130 12.48313 12523 ft 343 kts 356°
2026-04-27 18:54 38.30529 12.48209 13277 ft 347 kts 356°
2026-04-27 18:54 38.32954 12.48113 14015 ft 350 kts 356°
2026-04-27 18:54 38.35409 12.48021 14672 ft 355 kts 356°
2026-04-27 18:54 38.37903 12.47923 15343 ft 360 kts 354°
2026-04-27 18:55 38.40305 12.47223 15974 ft 361 kts 334°
2026-04-27 18:55 38.42391 12.45453 16656 ft 363 kts 314°
2026-04-27 18:55 38.43872 12.42812 17341 ft 365 kts 294°
2026-04-27 18:55 38.44526 12.39726 17979 ft 369 kts 274°
2026-04-27 18:56 38.44517 12.36436 18599 ft 373 kts 274°
2026-04-27 18:56 38.45163 12.33214 19183 ft 378 kts 294°
2026-04-27 18:56 38.46589 12.30399 19808 ft 381 kts 311°
2026-04-27 18:56 38.48635 12.28239 20395 ft 386 kts 330°
2026-04-27 18:57 38.51122 12.26903 20993 ft 390 kts 339°
2026-04-27 18:57 38.53711 12.25793 21559 ft 394 kts 341°
2026-04-27 18:57 38.56340 12.24743 22097 ft 398 kts 342°
2026-04-27 18:57 38.58996 12.23698 22667 ft 401 kts 342°
2026-04-27 18:58 38.61638 12.22649 23227 ft 403 kts 342°
2026-04-27 18:58 38.63453 12.21919 23606 ft 405 kts 341°
2026-04-27 18:58 38.67037 12.20457 24208 ft 410 kts 341°
2026-04-27 18:58 38.69753 12.19335 24661 ft 412 kts 341°
2026-04-27 18:59 38.72495 12.18194 25108 ft 415 kts 341°
2026-04-27 18:59 38.75247 12.17044 25546 ft 417 kts 341°
2026-04-27 18:59 38.78016 12.15884 25975 ft 420 kts 341°
2026-04-27 18:59 38.80801 12.14715 26401 ft 422 kts 341°
2026-04-27 19:00 38.83603 12.13538 26811 ft 425 kts 341°
2026-04-27 19:00 38.86421 12.12354 27223 ft 427 kts 341°
2026-04-27 19:00 38.89259 12.11159 27641 ft 429 kts 341°
2026-04-27 19:00 38.92105 12.09962 28047 ft 431 kts 341°
2026-04-27 19:01 38.94964 12.08757 28435 ft 434 kts 340°
2026-04-27 19:01 38.97839 12.07544 28816 ft 436 kts 340°
2026-04-27 19:01 39.00728 12.06325 29196 ft 438 kts 340°
2026-04-27 19:01 39.03631 12.05099 29571 ft 440 kts 340°
2026-04-27 19:02 39.06546 12.03867 29946 ft 442 kts 340°
2026-04-27 19:02 39.09472 12.02629 30277 ft 444 kts 340°
2026-04-27 19:02 39.12410 12.01384 30570 ft 445 kts 340°
2026-04-27 19:02 39.15317 12.00152 30904 ft 446 kts 340°
2026-04-27 19:03 39.18256 11.98906 31329 ft 443 kts 340°
2026-04-27 19:03 39.21178 11.97666 31768 ft 441 kts 340°
2026-04-27 19:03 39.24087 11.96431 32186 ft 440 kts 340°
2026-04-27 19:03 39.25066 11.96014 32302 ft 439 kts 340°
2026-04-27 19:04 39.28916 11.94376 32776 ft 439 kts 341°
2026-04-27 19:04 39.31813 11.93142 33151 ft 438 kts 341°
2026-04-27 19:04 39.34708 11.91908 33548 ft 436 kts 341°
2026-04-27 19:04 39.37583 11.90681 33913 ft 436 kts 341°
2026-04-27 19:05 39.40468 11.89448 34213 ft 436 kts 341°
2026-04-27 19:05 39.43352 11.88215 34496 ft 435 kts 341°
2026-04-27 19:05 39.46225 11.86986 34794 ft 434 kts 341°
2026-04-27 19:05 39.49099 11.85755 35083 ft 434 kts 341°
2026-04-27 19:06 39.51963 11.84528 35360 ft 433 kts 340°
2026-04-27 19:06 39.54792 11.83314 35627 ft 433 kts 340°
2026-04-27 19:06 39.57648 11.82088 35919 ft 432 kts 340°
2026-04-27 19:06 39.60498 11.80864 36140 ft 433 kts 340°
2026-04-27 19:07 39.63381 11.79623 36117 ft 437 kts 340°
2026-04-27 19:07 39.69164 11.77133 36109 ft 435 kts 340°
2026-04-27 19:08 39.74858 11.74678 36118 ft 429 kts 340°
2026-04-27 19:08 39.80484 11.72247 36129 ft 429 kts 340°
2026-04-27 19:09 39.86151 11.69793 36125 ft 429 kts 340°
2026-04-27 19:09 39.91823 11.67333 36124 ft 430 kts 340°
2026-04-27 19:10 39.97500 11.64867 36127 ft 430 kts 340°
2026-04-27 19:10 40.03184 11.62394 36123 ft 431 kts 340°
2026-04-27 19:11 40.08878 11.59911 36122 ft 431 kts 340°
2026-04-27 19:11 40.14570 11.57426 36124 ft 431 kts 340°
2026-04-27 19:12 40.20263 11.54935 36127 ft 431 kts 340°
2026-04-27 19:12 40.25965 11.52437 36127 ft 432 kts 340°
2026-04-27 19:13 40.31659 11.49937 36126 ft 431 kts 340°
2026-04-27 19:13 40.37351 11.47433 36122 ft 431 kts 340°
2026-04-27 19:14 40.43046 11.44924 36124 ft 431 kts 340°
2026-04-27 19:14 40.48725 11.42418 36123 ft 431 kts 340°
2026-04-27 19:15 40.54412 11.39903 36126 ft 431 kts 340°
2026-04-27 19:15 40.60051 11.37405 36127 ft 430 kts 340°
2026-04-27 19:16 40.65730 11.34885 36123 ft 430 kts 340°
2026-04-27 19:16 40.71423 11.32354 36302 ft 433 kts 340°
2026-04-27 19:16 40.74270 11.31086 36605 ft 431 kts 340°
2026-04-27 19:17 40.77115 11.29819 36949 ft 428 kts 340°
2026-04-27 19:17 40.79902 11.28577 37258 ft 427 kts 340°
2026-04-27 19:17 40.82711 11.27323 37511 ft 426 kts 340°
2026-04-27 19:17 40.85527 11.26065 37728 ft 426 kts 340°
2026-04-27 19:18 40.88336 11.24809 37960 ft 426 kts 340°
2026-04-27 19:18 40.91149 11.23549 38136 ft 427 kts 340°
2026-04-27 19:18 40.93975 11.22283 38112 ft 430 kts 340°
2026-04-27 19:19 40.99618 11.19752 38116 ft 426 kts 340°
2026-04-27 19:19 41.05207 11.17241 38120 ft 422 kts 340°
2026-04-27 19:20 41.10724 11.14757 38125 ft 420 kts 340°
2026-04-27 19:20 41.16244 11.12268 38130 ft 418 kts 340°
2026-04-27 19:21 41.21761 11.09775 38130 ft 418 kts 340°
2026-04-27 19:21 41.27283 11.07275 38129 ft 420 kts 340°
2026-04-27 19:22 41.32800 11.04773 38132 ft 422 kts 340°
2026-04-27 19:22 41.38369 11.02244 38133 ft 424 kts 340°
2026-04-27 19:23 41.43972 10.99694 38128 ft 427 kts 340°
2026-04-27 19:23 41.49608 10.97125 38131 ft 428 kts 340°
2026-04-27 19:24 41.55262 10.94542 38125 ft 429 kts 340°
2026-04-27 19:24 41.60919 10.91954 38128 ft 430 kts 340°
2026-04-27 19:25 41.66542 10.89376 38125 ft 429 kts 340°
2026-04-27 19:25 41.72185 10.86785 38123 ft 428 kts 340°
2026-04-27 19:26 41.77816 10.84194 38125 ft 427 kts 340°
2026-04-27 19:26 41.83422 10.81609 38126 ft 425 kts 340°
2026-04-27 19:27 41.89008 10.79029 38124 ft 424 kts 340°
2026-04-27 19:27 41.94589 10.76447 38122 ft 423 kts 340°
2026-04-27 19:28 42.00113 10.73886 38126 ft 422 kts 340°
2026-04-27 19:28 42.05665 10.71308 38125 ft 421 kts 340°
2026-04-27 19:29 42.11211 10.68727 38125 ft 421 kts 340°
2026-04-27 19:29 42.16752 10.66145 38122 ft 421 kts 340°
2026-04-27 19:30 42.22266 10.63569 38125 ft 422 kts 340°
2026-04-27 19:30 42.27825 10.60969 38122 ft 423 kts 340°
2026-04-27 19:31 42.33384 10.58362 38123 ft 423 kts 340°
2026-04-27 19:31 42.38952 10.55747 38126 ft 424 kts 340°
2026-04-27 19:32 42.44533 10.53122 38121 ft 424 kts 340°
2026-04-27 19:32 42.50111 10.50492 38125 ft 425 kts 340°
2026-04-27 19:33 42.55694 10.47855 38120 ft 425 kts 340°
2026-04-27 19:33 42.61250 10.45226 38123 ft 425 kts 340°
2026-04-27 19:34 42.66500 10.42737 38119 ft 425 kts 340°
2026-04-27 19:34 42.72040 10.39958 38116 ft 424 kts 334°
2026-04-27 19:35 42.76958 10.35546 38131 ft 423 kts 321°
2026-04-27 19:35 42.81474 10.30492 38118 ft 423 kts 320°
2026-04-27 19:36 42.86019 10.25386 38117 ft 423 kts 321°
2026-04-27 19:36 42.90569 10.20315 38121 ft 422 kts 321°
2026-04-27 19:37 42.95128 10.15251 38118 ft 422 kts 321°
2026-04-27 19:37 42.99683 10.10187 38124 ft 422 kts 321°
2026-04-27 19:38 43.04203 10.05152 38121 ft 421 kts 321°
2026-04-27 19:38 43.08746 10.00083 38120 ft 421 kts 321°
2026-04-27 19:39 43.13287 9.95004 38122 ft 421 kts 321°
2026-04-27 19:39 43.17829 9.89913 38126 ft 422 kts 321°
2026-04-27 19:40 43.22368 9.84817 38122 ft 422 kts 321°
2026-04-27 19:40 43.26912 9.79705 38124 ft 422 kts 321°
2026-04-27 19:41 43.31456 9.74582 38123 ft 422 kts 321°
2026-04-27 19:41 43.35970 9.69482 37908 ft 426 kts 321°
2026-04-27 19:41 43.38271 9.66879 37523 ft 425 kts 321°
2026-04-27 19:42 43.40541 9.64308 37073 ft 421 kts 321°
2026-04-27 19:42 43.42790 9.61759 36709 ft 415 kts 321°
2026-04-27 19:42 43.45009 9.59240 36307 ft 412 kts 321°
2026-04-27 19:42 43.47206 9.56744 35914 ft 408 kts 321°
2026-04-27 19:43 43.49383 9.54268 35520 ft 404 kts 321°
2026-04-27 19:43 43.51542 9.51811 35130 ft 401 kts 321°
2026-04-27 19:43 43.53689 9.49367 34743 ft 398 kts 321°
2026-04-27 19:43 43.55814 9.46943 34361 ft 395 kts 321°
2026-04-27 19:44 43.57920 9.44540 33959 ft 392 kts 321°
2026-04-27 19:44 43.60020 9.42140 33529 ft 390 kts 321°
2026-04-27 19:44 43.62095 9.39768 33130 ft 387 kts 321°
2026-04-27 19:44 43.64157 9.37408 32752 ft 383 kts 321°
2026-04-27 19:45 43.66202 9.35066 32373 ft 380 kts 321°
2026-04-27 19:45 43.68207 9.32766 32008 ft 377 kts 321°
2026-04-27 19:45 43.70220 9.30456 31643 ft 375 kts 321°
2026-04-27 19:45 43.72222 9.28156 31274 ft 372 kts 321°
2026-04-27 19:46 43.74206 9.25875 30927 ft 370 kts 321°
2026-04-27 19:46 43.76177 9.23607 30565 ft 367 kts 321°
2026-04-27 19:46 43.78137 9.21351 30212 ft 365 kts 321°
2026-04-27 19:46 43.80089 9.19101 29804 ft 363 kts 321°
2026-04-27 19:47 43.82027 9.16862 29389 ft 361 kts 321°
2026-04-27 19:47 43.83946 9.14640 28983 ft 358 kts 321°
2026-04-27 19:47 43.85821 9.12466 28621 ft 355 kts 321°
2026-04-27 19:47 43.87716 9.10269 28253 ft 352 kts 321°
2026-04-27 19:48 43.89578 9.08107 27885 ft 349 kts 321°
2026-04-27 19:48 43.91438 9.05948 27525 ft 346 kts 320°
2026-04-27 19:48 43.93279 9.03808 27163 ft 344 kts 320°
2026-04-27 19:48 43.95112 9.01678 26808 ft 342 kts 320°
2026-04-27 19:49 43.96939 8.99569 26448 ft 340 kts 320°
2026-04-27 19:49 43.98754 8.97477 26093 ft 338 kts 320°
2026-04-27 19:49 44.00559 8.95395 25744 ft 336 kts 320°
2026-04-27 19:49 44.02354 8.93323 25401 ft 335 kts 320°
2026-04-27 19:50 44.04140 8.91258 25052 ft 333 kts 320°
2026-04-27 19:50 44.05921 8.89196 24711 ft 332 kts 320°
2026-04-27 19:50 44.07688 8.87149 24368 ft 331 kts 320°
2026-04-27 19:50 44.09452 8.85104 24026 ft 330 kts 320°
2026-04-27 19:51 44.11211 8.83063 23684 ft 329 kts 320°
2026-04-27 19:51 44.12966 8.81025 23275 ft 328 kts 320°
2026-04-27 19:51 44.14690 8.79008 22905 ft 326 kts 319°
2026-04-27 19:51 44.15855 8.77632 22657 ft 325 kts 319°
2026-04-27 19:52 44.17575 8.75595 22304 ft 323 kts 319°
2026-04-27 19:52 44.19284 8.73571 21959 ft 321 kts 319°
2026-04-27 19:52 44.20984 8.71561 21623 ft 320 kts 319°
2026-04-27 19:52 44.23226 8.68920 21179 ft 317 kts 319°
2026-04-27 19:53 44.26022 8.65628 20627 ft 315 kts 319°
2026-04-27 19:53 44.27694 8.63657 20299 ft 313 kts 319°
2026-04-27 19:53 44.29354 8.61697 19973 ft 312 kts 319°
2026-04-27 19:54 44.31008 8.59742 19646 ft 311 kts 319°
2026-04-27 19:54 44.32662 8.57786 19328 ft 310 kts 319°
2026-04-27 19:54 44.34303 8.55844 19001 ft 309 kts 319°
2026-04-27 19:54 44.35941 8.53905 18690 ft 308 kts 319°
2026-04-27 19:55 44.37578 8.51966 18359 ft 308 kts 319°
2026-04-27 19:55 44.39212 8.50025 17975 ft 308 kts 318°
2026-04-27 19:55 44.40735 8.47932 17633 ft 307 kts 311°
2026-04-27 19:55 44.42121 8.45725 17297 ft 305 kts 310°
2026-04-27 19:56 44.43492 8.43470 16967 ft 303 kts 310°
2026-04-27 19:56 44.44876 8.41200 16650 ft 302 kts 310°
2026-04-27 19:56 44.46225 8.39008 16325 ft 300 kts 310°
2026-04-27 19:56 44.47588 8.36810 16006 ft 299 kts 310°
2026-04-27 19:57 44.48955 8.34615 15687 ft 298 kts 310°
2026-04-27 19:57 44.50314 8.32438 15377 ft 296 kts 311°
2026-04-27 19:57 44.51670 8.30270 15065 ft 296 kts 311°
2026-04-27 19:57 44.53081 8.28155 14685 ft 297 kts 314°
2026-04-27 19:58 44.54531 8.26077 14271 ft 299 kts 314°
2026-04-27 19:58 44.55999 8.23990 13926 ft 300 kts 314°
2026-04-27 19:58 44.57456 8.21915 13617 ft 298 kts 314°
2026-04-27 19:58 44.58905 8.19841 13283 ft 297 kts 314°
2026-04-27 19:59 44.60349 8.17769 12891 ft 297 kts 314°
2026-04-27 19:59 44.61829 8.15639 11936 ft 315 kts 314°
2026-04-27 19:59 44.63392 8.13381 11387 ft 321 kts 314°
2026-04-27 19:59 44.64899 8.11203 11261 ft 310 kts 314°
2026-04-27 20:00 44.66374 8.09068 11166 ft 299 kts 314°
2026-04-27 20:00 44.67803 8.06997 11031 ft 291 kts 314°
2026-04-27 20:00 44.69203 8.04966 10723 ft 288 kts 314°
2026-04-27 20:00 44.70601 8.02937 10363 ft 289 kts 314°
2026-04-27 20:01 44.71998 8.00906 10050 ft 288 kts 314°
2026-04-27 20:01 44.73385 7.98888 9742 ft 286 kts 314°
2026-04-27 20:01 44.74766 7.96880 9409 ft 285 kts 314°
2026-04-27 20:01 44.76143 7.94873 9077 ft 284 kts 314°
2026-04-27 20:02 44.77513 7.92877 8736 ft 283 kts 314°
2026-04-27 20:02 44.78861 7.90910 8419 ft 282 kts 314°
2026-04-27 20:02 44.80221 7.88925 8097 ft 281 kts 314°
2026-04-27 20:02 44.81576 7.86946 7787 ft 280 kts 314°
2026-04-27 20:03 44.82926 7.84971 7483 ft 279 kts 314°
2026-04-27 20:03 44.84268 7.83008 7182 ft 277 kts 314°
2026-04-27 20:03 44.85603 7.81053 6877 ft 276 kts 314°
2026-04-27 20:03 44.86930 7.79109 6596 ft 271 kts 313°
2026-04-27 20:04 44.88226 7.77210 6158 ft 267 kts 313°
2026-04-27 20:04 44.89508 7.75327 5740 ft 262 kts 313°
2026-04-27 20:04 44.90761 7.73488 5231 ft 258 kts 313°
2026-04-27 20:04 44.92003 7.71663 4644 ft 258 kts 313°
2026-04-27 20:05 44.93244 7.69838 4196 ft 256 kts 313°
2026-04-27 20:05 44.94484 7.68015 4067 ft 258 kts 313°
2026-04-27 20:05 44.95710 7.66209 3999 ft 257 kts 313°
2026-04-27 20:05 44.97024 7.64523 3959 ft 256 kts 330°
2026-04-27 20:06 44.98740 7.63894 4006 ft 257 kts 354°
2026-04-27 20:06 45.00533 7.63751 3993 ft 258 kts 359°
2026-04-27 20:06 45.02329 7.63810 3982 ft 256 kts
2026-04-27 20:06 45.04069 7.63934 3767 ft 241 kts
2026-04-27 20:07 45.05677 7.64045 3487 ft 222 kts
2026-04-27 20:07 45.07167 7.64141 3212 ft 207 kts
2026-04-27 20:07 45.08561 7.64229 2961 ft 193 kts
2026-04-27 20:07 45.09859 7.64312 2712 ft 180 kts
2026-04-27 20:08 45.11045 7.64387 2483 ft 163 kts
2026-04-27 20:08 45.12152 7.64458 2280 ft 156 kts
2026-04-27 20:08 45.13219 7.64526 2084 ft 155 kts
2026-04-27 20:08 45.14304 7.64595 1877 ft 156 kts
2026-04-27 20:09 45.15390 7.64662 1666 ft 155 kts
2026-04-27 20:09 45.16455 7.64734 1470 ft 153 kts
2026-04-27 20:09 45.17506 7.64798 1293 ft 150 kts
2026-04-27 20:09 45.18549 7.64868 1086 ft 150 kts
2026-04-27 20:10 45.19556 7.64931 994 ft 136 kts
2026-04-27 20:10 45.20354 7.64980 986 ft 81 kts
2026-04-27 20:10 45.20552 7.64993 983 ft 16 kts
2026-04-27 20:10 45.20660 7.65000 982 ft 15 kts
2026-04-27 20:11 45.20764 7.65007 981 ft 15 kts
2026-04-27 20:11 45.20853 7.64960 985 ft 14 kts 306°
2026-04-27 20:11 45.20876 7.64833 984 ft 13 kts 262°
2026-04-27 20:11 45.20815 7.64748 988 ft 13 kts 195°
2026-04-27 20:12 45.20726 7.64737 985 ft 13 kts 182°
2026-04-27 20:12 45.20627 7.64730 993 ft 18 kts 182°
2026-04-27 20:12 45.20488 7.64722 985 ft 22 kts 182°
2026-04-27 20:12 45.20335 7.64712 988 ft 22 kts 182°
2026-04-27 20:13 45.20187 7.64703 984 ft 21 kts 182°
2026-04-27 20:13 45.20042 7.64694 991 ft 20 kts 182°
2026-04-27 20:13 45.19902 7.64684 987 ft 20 kts 183°
2026-04-27 20:13 45.19767 7.64690 984 ft 19 kts 172°
2026-04-27 20:14 45.19636 7.64691 985 ft 19 kts 183°
2026-04-27 20:14 45.19496 7.64683 991 ft 23 kts 182°
2026-04-27 20:14 45.19331 7.64672 985 ft 23 kts 182°
2026-04-27 20:14 45.19175 7.64662 985 ft 19 kts 182°
2026-04-27 20:15 45.19101 7.64653 985 ft 6 kts 202°
2026-04-27 20:15 45.19080 7.64600 988 ft 7 kts 254°
2026-04-27 20:15 45.19068 7.64527 987 ft 4 kts 257°
2026-04-27 20:15 45.19066 7.64516 985 ft 0 kts 257°
2026-04-27 20:16 45.19065 7.64512 985 ft 1 kts 256°
2026-04-27 20:16 45.19064 7.64505 985 ft 0 kts 256°